Location: El Escondido
(32.5691°N, 116.4250°W)
Time: 10:30:21
(UTC+00:00)

Cosmos 1943 - Pass Details

Date: 13 April 2024
Orbit: 832 x 849 km, 71.0° (Epoch: 22 May)

Event Time Altitude Azimuth Distance (km) Brightness Sun altitude
Rises 12:15:41 0° 182° (S) 3,388 6.1 -13.4°
Reaches altitude 10° 12:18:13 10° 176° (S) 2,459 5.5 -12.9°
Maximum altitude 12:23:34 45° 105° (ESE) 1,134 4.3 -11.9°
Drops below altitude 10° 12:28:57 10° 34° (NE) 2,476 6.5 -10.8°
Sets 12:31:29 0° 28° (NNE) 3,415 7.1 -10.3°
